Location: Observatoire de Paris
(48.8363°N, 2.3365°E)
Time: 06:34:58
(UTC+01:00)

Vanguard 2 - All Passes

Search period start: 26 July 2021 00:00
Search period end: 05 August 2021 00:00
Orbit: 552 x 2937 km, 32.9° (Epoch: 25 July)

Date Brightness Start Highest point End Pass type
(mag) Time Alt. Az. Time Alt. Az. Time Alt. Az.
26 Jul - 07:50:15 10° SSW 07:54:47 20° SSE 08:00:57 10° ESE daylight
26 Jul - 09:56:09 10° SW 10:02:39 29° S 10:12:17 10° SE daylight
26 Jul - 12:04:08 10° WSW 12:11:35 23° SSW 12:21:35 10° SSE daylight
26 Jul - 14:19:21 10° SW 14:20:49 10° SW 14:22:20 10° SSW daylight
27 Jul - 08:07:20 10° SSW 08:12:04 22° SSE 08:18:39 10° ESE daylight
27 Jul - 10:13:44 10° WSW 10:20:08 26° S 10:29:23 10° SE daylight
27 Jul - 12:22:29 10° WSW 12:29:04 19° SSW 12:37:27 10° SSE daylight
28 Jul - 06:21:09 10° SSE 06:22:17 11° SSE 06:23:32 10° SE daylight
28 Jul - 08:24:35 10° SW 08:29:25 23° S 08:36:12 10° ESE daylight
28 Jul - 10:31:28 10° WSW 10:37:37 24° S 10:46:15 10° SE daylight
28 Jul - 12:41:33 10° SW 12:46:31 14° SSW 12:52:27 10° S daylight
29 Jul - 06:37:01 10° S 06:39:29 13° SSE 06:42:22 10° SE daylight
29 Jul - 08:41:58 10° SW 08:46:49 23° S 08:53:34 10° SE daylight
29 Jul - 10:49:26 10° SW 10:55:06 20° SSW 11:02:46 10° SSE daylight
30 Jul - 06:53:46 10° SSW 06:56:44 15° SSE 07:00:22 10° SE daylight
30 Jul - 08:59:32 10° SW 09:04:15 21° S 09:10:45 10° SE daylight
30 Jul - 11:07:47 10° SW 11:12:37 16° SSW 11:18:44 10° SSE daylight
31 Jul - 07:10:50 10° SSW 07:14:03 16° SSE 07:18:04 10° SE daylight
31 Jul - 09:17:15 10° SW 09:21:43 19° S 09:27:41 10° SE daylight
31 Jul - 11:27:05 10° SW 11:30:07 12° SSW 11:33:35 10° S daylight
01 Aug - 07:28:09 10° SSW 07:31:25 17° S 07:35:31 10° SE daylight
01 Aug - 09:35:16 10° SW 09:39:12 16° S 09:44:14 10° SSE daylight
02 Aug - 07:45:40 10° SW 07:48:49 16° S 07:52:44 10° SE daylight
02 Aug - 09:53:49 10° SW 09:56:43 13° SSW 10:00:06 10° S daylight
03 Aug - 05:57:41 10° S 05:58:55 11° SSE 06:00:15 10° SSE daylight
03 Aug - 08:03:27 10° SW 08:06:16 14° S 08:09:40 10° SSE daylight
04 Aug - 06:14:42 10° SSW 06:16:16 12° S 06:17:59 10° SSE daylight
04 Aug - 08:21:40 10° SSW 08:23:44 12° S 08:26:04 10° SSE daylight
